[Date Prev][Date Next][Thread Prev][Thread Next] - [Date Index][Thread Index][Author Index]

2 Line ISS Keps 1-22



ISS
1 25544U 98067A   03022.22724507  .00026352  00000-0  33061-3 0  6100
2 25544  51.6372  33.4337 0005662  64.0389  38.5625 15.59527489238230


----
Via the sarex mailing list at AMSAT.ORG courtesy of AMSAT-NA.
To unsubscribe, send "unsubscribe sarex" to Majordomo@amsat.org



AMSAT Top AMSAT Home